x

Yucatan Basin - 120 Nm Ese Of Cozumel, Mx (42056) Wave Buoy

4:50 - Mon 21st Apr 2014 All times are CDT. -5 hours from GMT.

  • Sig Wave height 3.6ft
  • Swell Direction
  • Peak Period 8s
  • Average Period 5s
  • Wind
    16mph, 18mph gusts
  • Sea Temp 82°f
  • Ar Temp 78°f
  • Sea Pressure 1014.3mb
  •  Yucatan Basin - 120 Nm Ese Of Cozumel, Mx
  •  Yucatan Basin - 120 Nm Ese Of Cozumel, Mx

More Historic Weather Station data

Upgrade to MSW Pro to gain access to the past 30 days of data for over 8000 Wavebouys and Weather Stations around the globe.

Join Pro

Comparision Forecast

View Surf forecast
   
Seg 04/21 4:50 3.5ft 8s 5s 16 18 mph 1014.3mb 82f 78f
3:50 3.5ft 8s 5s 13 18 mph 1014.5mb 82f 78f
2:50 3.5ft 8s 5s 13 18 mph 1014.8mb 82f 78f
1:50 3.5ft 8s 5s 13 18 mph 1015mb 82f 78f
12:50 3ft 8s 5s 13 18 mph 1015.6mb 82f 79f
Dom 04/20 11:50 3ft 8s 5s 13 18 mph 1016.2mb 82f 79f
10:50 3ft 8s 5s 13 16 mph 1016.1mb 82f 79f
9:50 3ft 8s 5s 13 16 mph 1016mb 82f 79f
8:50 3ft 8s 5s 13
mph
1015.9mb 82f 79f
7:50 3.5ft 8s 5s 13 16 mph 1015.4mb 82f 79f
6:50 3.5ft 8s 5s 16 18 mph 1015mb 82f 79f
5:50 3.5ft 8s 5s 13 18 mph 1014.9mb 82f 79f
4:50 3.5ft 5s 5s 13 16 mph 1015.1mb 82f 79f
3:50 3.5ft 8s 5s 13 16 mph 1015.3mb 82f 79f
2:50 3.5ft 6s 5s 16 18 mph 1015.4mb 82f 79f
12:50 3.5ft 5s 5s 16 18 mph 1016.5mb 82f 79f
11:50 4ft 5s 5s 13 18 mph 1017.1mb 82f 79f
10:50 3.5ft 5s 5s 16 18 mph 1017.2mb 82f 79f
9:50 3.5ft 5s 5s 18 22 mph 1017mb 82f 79f
8:50 3.5ft 5s 5s 18 20 mph 1016.7mb 82f 79f
7:50 3.5ft 5s 5s 16 18 mph 1016.3mb 82f 79f
6:50 3.5ft 5s 4s 16 18 mph 1016.1mb 82f 80f
5:50 3ft 4s 4s 18 20 mph 1015.2mb 82f 79f
4:50 3ft 7s 5s 16 18 mph 1015mb 82f 80f
3:50 2.5ft 9s 4s 18 20 mph 1014.5mb 82f 80f
2:50 2.5ft 7s 5s 16 18 mph 1014.4mb 82f 80f
1:50 2.5ft 7s 5s 13 16 mph 1014.8mb 82f 81f
12:50 2.5ft 8s 5s 11 13 mph 1015.4mb 82f 81f
Sáb 04/19 11:50 3ft 8s 5s 11
mph
1015.9mb 82f 81f
10:50 2.5ft 8s 5s 11 13 mph 1015.9mb 82f 81f
9:50 3ft 8s 5s 13 16 mph 1015.6mb 82f 81f
8:50 3ft 5s 5s 13 18 mph 1015.3mb 82f 81f
7:50 3ft 5s 5s 13 16 mph 1014.9mb 82f 81f
6:50 3ft 5s 5s 7 9 mph 1014.5mb 83f 81f
5:50 3.5ft 5s 5s 16 18 mph 1013.8mb 83f 81f
4:50 3ft 5s 5s 9 11 mph 1014mb 83f 82f
3:50 2.5ft 7s 6s 7 9 mph 1013.9mb 83f 82f
2:50 2.5ft 6s 6s 9 11 mph 1014.4mb 84f 82f
1:50 2.5ft 6s 5s 7
mph
1015mb 84f 82f
12:50 2.5ft 6s 5s 4 7 mph 1015.7mb 83f 81f
11:50 2.5ft 6s 6s 4 7 mph 1016mb 83f 81f
10:50 2.5ft 6s 6s 4 7 mph 1016.2mb 83f 81f
9:50 2.5ft 6s 6s 4 7 mph 1016mb 82f 81f
8:50 2.5ft 7s 6s 4
mph
1015.6mb 82f 81f
7:50 3ft 7s 6s 4
mph
1015.1mb 82f 81f
6:50 2.5ft 7s 6s 2 4 mph 1014.7mb 82f 81f
5:50 2.5ft 6s 6s 2 4 mph 1014.1mb 82f 80f
4:50 2.5ft 7s 6s 2
mph
1013.6mb 82f 80f
3:50 2.5ft 7s 6s 2
mph
1013.2mb 82f 80f
2:50 2.5ft 7s 5s 4 7 mph 1013.3mb 82f 80f
1:50 2ft 8s 5s 4 7 mph 1013.8mb 82f 81f
12:50 2ft 8s 5s 4 7 mph 1014.3mb 82f 81f
Sex 04/18 11:50 2ft 8s 5s 9 11 mph 1014.5mb 82f 81f
10:50 2ft 6s 5s 9
mph
1014.5mb 82f 81f
9:50 2ft 6s 5s 7 9 mph 1014.5mb 82f 82f
8:50 2.5ft 6s 5s 9 11 mph 1014.4mb 82f 82f
7:50 2ft 6s 5s 9 11 mph 1013.5mb 82f 82f
6:50 2.5ft 6s 5s 7
mph
1013.7mb 83f 82f
5:50 2ft 6s 5s 7 9 mph 1013.5mb 83f 82f
4:50 2.5ft 7s 5s 4 7 mph 1013.6mb 83f 82f
3:50 2.5ft 7s 5s 4 7 mph 1013.4mb 83f 82f
2:50 2.5ft 6s 5s 4 7 mph 1013.7mb 83f 82f
1:50 2.5ft 6s 5s 9 11 mph 1014mb 83f 82f
12:50 2.5ft 7s 5s 9
mph
1014.4mb 82f 82f
11:50 2.5ft 6s 5s 11 13 mph 1014.5mb 82f 82f
10:50 2.5ft 7s 5s 11 13 mph 1014.2mb 82f 81f
9:50 2.5ft 7s 5s 9 11 mph 1014.4mb 82f 81f
8:50 3ft 7s 5s 7 9 mph 1014.3mb 82f 81f
7:50 3ft 7s 5s 4 7 mph 1014.3mb 82f 81f
6:50 3ft 6s 5s 4 7 mph 1013.8mb 82f 80f
5:50 3ft 6s 5s 9
mph
1012.9mb 82f 80f
4:50 3ft 6s 5s 9
mph
1011.9mb 82f 80f
3:50 3ft 6s 5s 7 9 mph 1011.8mb 82f 80f
2:50 3ft 6s 5s 7 9 mph 1012.3mb 82f 80f
1:50 3ft 5s 5s 7 9 mph 1013mb 82f 80f
12:50 3ft 6s 5s 9
mph
1013.8mb 82f 80f
Qui 04/17 11:50 3.5ft 6s 5s 9 11 mph 1014.2mb 82f 80f
10:50 3ft 8s 5s 9 11 mph 1014.1mb 82f 81f
9:50 2.5ft 9s 5s 7 9 mph 1013.8mb 82f 81f
8:50 2.5ft 8s 5s 9 11 mph 1013.4mb 82f 82f
7:50 2.5ft 8s 5s 9 11 mph 1012.9mb 82f 82f
6:50 2.5ft 9s 5s 11 13 mph 1012.4mb 82f 82f
5:50 2.5ft 9s 5s 11 13 mph 1012.4mb 82f 82f
4:50 2.5ft 10s 5s 9 11 mph 1012.4mb 83f 82f
3:50 3ft 9s 5s 9 11 mph 1012.8mb 83f 82f
2:50 3ft 9s 5s 9 11 mph 1013.5mb 82f 82f
1:50 2.5ft 9s 5s 9 11 mph 1014.4mb 82f 82f
12:50 3ft 9s 5s 9 11 mph 1015mb 82f 82f
11:50 3.5ft 9s 5s 11 13 mph 1015.2mb 82f 81f